TimeCST,TemperatureF,Dew PointF,Humidity,Sea Level PressureIn,VisibilityMPH,Wind Direction,Wind SpeedMPH,Gust SpeedMPH,PrecipitationIn,Events,Conditions,WindDirDegrees,DateUTC
12:15 AM,34.0,29.3,83,30.46,10.0,Calm,Calm,-,N/A,,Clear,0,2012-11-13 06:15:00
12:35 AM,34.9,29.7,81,30.45,10.0,Calm,Calm,-,N/A,,Clear,0,2012-11-13 06:35:00
12:55 AM,35.1,30.2,82,30.44,10.0,Calm,Calm,-,N/A,,Clear,0,2012-11-13 06:55:00
1:15 AM,34.7,30.7,85,30.44,10.0,Calm,Calm,-,N/A,,Clear,0,2012-11-13 07:15:00
1:35 AM,34.0,31.1,89,30.44,10.0,Calm,Calm,-,N/A,,Clear,0,2012-11-13 07:35:00
1:55 AM,33.8,31.6,92,30.44,10.0,Calm,Calm,-,N/A,,Clear,0,2012-11-13 07:55:00
2:15 AM,32.7,30.6,92,30.43,10.0,Calm,Calm,-,N/A,,Clear,0,2012-11-13 08:15:00
2:35 AM,32.9,30.7,92,30.42,10.0,Calm,Calm,-,N/A,,Clear,0,2012-11-13 08:35:00
2:55 AM,32.5,30.6,92,30.42,10.0,Calm,Calm,-,N/A,,Clear,0,2012-11-13 08:55:00
3:15 AM,33.8,30.7,89,30.41,10.0,Calm,Calm,-,N/A,,Clear,0,2012-11-13 09:15:00
3:35 AM,33.8,30.4,87,30.41,10.0,Calm,Calm,-,N/A,,Clear,0,2012-11-13 09:35:00
3:55 AM,33.8,30.4,87,30.42,10.0,Calm,Calm,-,N/A,,Clear,0,2012-11-13 09:55:00
4:15 AM,32.0,30.0,92,30.42,10.0,Calm,Calm,-,N/A,,Clear,0,2012-11-13 10:15:00
4:35 AM,34.5,29.3,81,30.41,10.0,Calm,Calm,-,N/A,,Clear,0,2012-11-13 10:35:00
4:55 AM,34.7,29.1,80,30.41,10.0,Calm,Calm,-,N/A,,Clear,0,2012-11-13 10:55:00
5:15 AM,34.5,29.8,83,30.41,10.0,Calm,Calm,-,N/A,,Clear,0,2012-11-13 11:15:00
5:35 AM,35.4,28.8,77,30.41,10.0,Calm,Calm,-,N/A,,Clear,0,2012-11-13 11:35:00
6:15 AM,36.5,29.1,75,30.43,10.0,Calm,Calm,-,N/A,,Clear,0,2012-11-13 12:15:00
6:35 AM,36.1,30.7,81,30.44,10.0,Calm,Calm,-,N/A,,Clear,0,2012-11-13 12:35:00
6:55 AM,36.1,30.6,80,30.44,10.0,Calm,Calm,-,N/A,,Mostly Cloudy,0,2012-11-13 12:55:00
7:15 AM,37.8,30.9,76,30.45,10.0,NE,3.5,-,N/A,,Overcast,50,2012-11-13 13:15:00
7:35 AM,39.0,28.6,66,30.45,10.0,ENE,3.5,-,N/A,,Overcast,70,2012-11-13 13:35:00
7:55 AM,40.3,28.2,62,30.45,10.0,East,4.6,-,N/A,,Overcast,90,2012-11-13 13:55:00
8:15 AM,41.0,27.9,60,30.46,10.0,ESE,3.5,-,N/A,,Overcast,120,2012-11-13 14:15:00
8:35 AM,41.9,27.9,58,30.46,10.0,East,4.6,-,N/A,,Overcast,100,2012-11-13 14:35:00
8:55 AM,42.1,28.4,58,30.45,10.0,ESE,5.8,-,N/A,,Overcast,120,2012-11-13 14:55:00
9:15 AM,43.0,28.0,56,30.45,10.0,East,4.6,-,N/A,,Overcast,100,2012-11-13 15:15:00
9:35 AM,44.1,28.2,54,30.45,10.0,East,5.8,-,N/A,,Overcast,90,2012-11-13 15:35:00
9:55 AM,44.6,27.7,52,30.45,10.0,East,6.9,-,N/A,,Overcast,90,2012-11-13 15:55:00
10:15 AM,45.3,27.3,49,30.45,10.0,ESE,4.6,-,N/A,,Overcast,110,2012-11-13 16:15:00
10:35 AM,46.6,26.8,46,30.45,10.0,ESE,5.8,-,N/A,,Overcast,110,2012-11-13 16:35:00
10:55 AM,47.8,23.4,38,30.44,10.0,ESE,5.8,-,N/A,,Overcast,120,2012-11-13 16:55:00
11:15 AM,48.0,22.6,37,30.44,10.0,SE,5.8,-,N/A,,Overcast,130,2012-11-13 17:15:00
11:35 AM,49.5,23.5,36,30.41,10.0,ESE,9.2,-,N/A,,Overcast,120,2012-11-13 17:35:00
11:55 AM,49.6,22.8,35,30.41,10.0,SSE,5.8,-,N/A,,Overcast,150,2012-11-13 17:55:00
12:15 PM,50.4,22.8,34,30.39,10.0,ESE,8.1,-,N/A,,Overcast,110,2012-11-13 18:15:00
12:55 PM,51.3,22.8,33,30.38,10.0,SE,4.6,-,N/A,,Overcast,130,2012-11-13 18:55:00
1:35 PM,51.1,23.0,33,30.36,10.0,SSE,3.5,-,N/A,,Overcast,150,2012-11-13 19:35:00
1:55 PM,50.9,22.6,33,30.34,10.0,East,4.6,-,N/A,,Overcast,100,2012-11-13 19:55:00
2:15 PM,51.4,21.7,31,30.33,10.0,South,6.9,-,N/A,,Overcast,170,2012-11-13 20:15:00
2:35 PM,51.8,23.5,33,30.33,10.0,ESE,3.5,-,N/A,,Overcast,110,2012-11-13 20:35:00
2:55 PM,51.4,23.0,33,30.32,10.0,East,4.6,-,N/A,,Overcast,90,2012-11-13 20:55:00
3:15 PM,51.1,23.2,34,30.32,10.0,SE,4.6,-,N/A,,Overcast,130,2012-11-13 21:15:00
3:35 PM,51.4,22.1,32,30.32,10.0,East,4.6,-,N/A,,Overcast,90,2012-11-13 21:35:00
3:55 PM,51.3,21.9,32,30.32,10.0,SSE,4.6,-,N/A,,Overcast,150,2012-11-13 21:55:00
4:15 PM,51.3,22.1,32,30.32,10.0,ESE,3.5,-,N/A,,Overcast,110,2012-11-13 22:15:00
4:35 PM,51.3,23.0,33,30.32,10.0,ESE,3.5,-,N/A,,Overcast,110,2012-11-13 22:35:00
4:55 PM,50.9,23.2,34,30.32,10.0,East,3.5,-,N/A,,Overcast,80,2012-11-13 22:55:00
5:15 PM,50.9,23.4,34,30.32,10.0,ESE,3.5,-,N/A,,Overcast,110,2012-11-13 23:15:00
5:35 PM,50.2,23.9,36,30.32,10.0,ESE,3.5,-,N/A,,Overcast,120,2012-11-13 23:35:00
5:55 PM,49.5,24.1,37,30.31,10.0,ESE,3.5,-,N/A,,Overcast,120,2012-11-13 23:55:00
6:15 PM,49.3,24.6,38,30.32,10.0,Calm,Calm,-,N/A,,Overcast,0,2012-11-14 00:15:00
6:35 PM,48.9,26.4,42,30.31,10.0,SSE,5.8,-,N/A,,Overcast,160,2012-11-14 00:35:00
6:55 PM,47.8,25.7,42,30.31,10.0,SE,3.5,-,N/A,,Scattered Clouds,130,2012-11-14 00:55:00
7:15 PM,46.8,26.1,44,30.31,10.0,Calm,Calm,-,N/A,,Clear,0,2012-11-14 01:15:00
7:35 PM,46.4,26.4,46,30.32,10.0,Calm,Calm,-,N/A,,Clear,0,2012-11-14 01:35:00
7:55 PM,44.1,29.3,56,30.33,10.0,Calm,Calm,-,N/A,,Scattered Clouds,0,2012-11-14 01:55:00
8:15 PM,41.2,29.3,63,30.33,10.0,Calm,Calm,-,N/A,,Scattered Clouds,0,2012-11-14 02:15:00
8:35 PM,41.4,29.5,63,30.34,10.0,Calm,Calm,-,N/A,,Clear,0,2012-11-14 02:35:00
8:55 PM,38.7,29.7,70,30.34,10.0,Calm,Calm,-,N/A,,Clear,0,2012-11-14 02:55:00
9:15 PM,40.5,28.4,62,30.33,10.0,Calm,Calm,-,N/A,,Clear,0,2012-11-14 03:15:00
9:35 PM,36.5,30.2,78,30.34,10.0,Calm,Calm,-,N/A,,Clear,0,2012-11-14 03:35:00
9:55 PM,37.4,31.6,80,30.34,10.0,Calm,Calm,-,N/A,,Clear,0,2012-11-14 03:55:00
10:15 PM,35.6,29.3,78,30.35,10.0,NNW,3.5,-,N/A,,Clear,340,2012-11-14 04:15:00
10:35 PM,35.4,29.3,78,30.34,10.0,Calm,Calm,-,N/A,,Clear,0,2012-11-14 04:35:00
10:55 PM,34.5,29.3,81,30.35,10.0,Calm,Calm,-,N/A,,Clear,0,2012-11-14 04:55:00
11:15 PM,35.1,29.7,81,30.34,10.0,Calm,Calm,-,N/A,,Clear,0,2012-11-14 05:15:00
11:35 PM,36.0,29.8,78,30.34,10.0,Calm,Calm,-,N/A,,Scattered Clouds,0,2012-11-14 05:35:00
11:55 PM,33.3,29.3,85,30.34,10.0,NNW,3.5,-,N/A,,Scattered Clouds,330,2012-11-14 05:55:00